This is the latest recevied weather packets stored in our database for station/object WB6ANP. If no packets are shown the sender has not sent any weather packets the latest 10 day(s).
| Time | Temp. | Humidity | Pressure | Rain* | Wind** | Luminosity | Snow |
|---|---|---|---|---|---|---|---|
| 1777926304 | 28.33° C | 51% | 1007.7 hPa | 0 mm | - | 782 W/m² | - |
| 1777926001 | 28.33° C | 52% | 1007.8 hPa | 0 mm | - | 795 W/m² | - |
| 1777925698 | 28.33° C | 51% | 1008 hPa | 0 mm | - | 781 W/m² | - |
| 1777925396 | 27.78° C | 51% | 1008.1 hPa | 0 mm | - | 812 W/m² | - |
| 1777925092 | 28.33° C | 50% | 1008.4 hPa | 0 mm | - | 820 W/m² | - |
| 1777924789 | 27.78° C | 53% | 1008.5 hPa | 0 mm | - | 874 W/m² | - |
| 1777924485 | 27.78° C | 52% | 1008.5 hPa | 0 mm | - | 845 W/m² | - |
| 1777924182 | 27.22° C | 54% | 1008.6 hPa | 0 mm | - | 865 W/m² | - |
| 1777923878 | 27.78° C | 51% | 1008.6 hPa | 0 mm | - | 891 W/m² | - |
| 1777923574 | 27.78° C | 51% | 1008.9 hPa | 0 mm | - | 916 W/m² | - |
| 1777923271 | 27.78° C | 52% | 1009 hPa | 0 mm | - | 891 W/m² | - |
| 1777922970 | 27.78° C | 54% | 1009 hPa | 0 mm | - | 885 W/m² | - |
| 1777922667 | 27.22° C | 53% | 1009.2 hPa | 0 mm | - | 823 W/m² | - |
| 1777922366 | 27.22° C | 53% | 1009 hPa | 0 mm | - | 923 W/m² | - |
| 1777922064 | 26.67° C | 53% | 1009.2 hPa | 0 mm | - | 925 W/m² | - |
| 1777921758 | 27.22° C | 53% | 1009.3 hPa | 0 mm | - | 602 W/m² | - |
| 1777921454 | 26.67° C | 55% | 1009.5 hPa | 0 mm | - | 725 W/m² | - |
| 1777921151 | 26.67° C | 53% | 1009.3 hPa | 0 mm | - | 851 W/m² | - |
| 1777920849 | 26.67° C | 53% | 1009.3 hPa | 0 mm | - | 838 W/m² | - |
| 1777920544 | 26.67° C | 56% | 1009.5 hPa | 0 mm | - | 924 W/m² | - |
| 1777920240 | 26.67° C | 53% | 1009.7 hPa | 0 mm | - | 862 W/m² | - |
| 1777919936 | 26.67° C | 52% | 1009.8 hPa | 0 mm | - | 965 W/m² | - |
| 1777919634 | 26.67° C | 55% | 1009.8 hPa | 0 mm | - | 778 W/m² | - |
| 1777919331 | 26.67° C | 54% | 1009.7 hPa | 0 mm | - | 799 W/m² | - |
| 1777919029 | 26.67° C | 53% | 1010 hPa | 0 mm | - | 926 W/m² | - |
* Rain latest hour (hover to see other rain measurements)
** Current wind speed in m/s (hover to see current wind gust speed)